Theta_e
318 314 312 324 324 325 326 329 327 334 334 337 336 332 332 332 333 335 332 331 329 325 325 325 324 322 320 319 320 320 319 318 318 318 317 317 316 315 315 315 317 317 317 317 314 313 313 312 311
319 312 324 327 324 327 327 326 327 335 337 337 336 333 336 337 337 336 335 336 329 325 325 325 324 322 320 319 320 320 319 318 318 318 318 318 317 317 316 316 318 320 323 323 321 323 322 323 323
317 322 322 323 325 326 327 329 335 337 336 336 336 335 334 337 337 336 336 336 336 328 325 324 323 322 320 319 320 320 319 318 318 318 318 318 319 318 318 317 319 320 321 322 322 323 324 325 324
313 321 324 324 329 328 330 330 332 337 336 335 335 335 332 337 337 336 336 336 335 334 328 325 324 323 321 320 320 320 319 319 319 319 319 319 320 320 319 318 318 322 324 321 321 327 331 332 332
322 326 321 324 327 330 330 332 331 336 337 334 335 335 332 334 334 335 335 336 335 334 334 333 327 323 322 320 320 320 320 319 319 319 320 320 320 321 320 319 317 319 327 329 323 322 324 330 331
324 323 324 325 326 328 328 330 329 336 337 337 335 333 332 333 332 332 333 334 335 332 333 334 333 326 323 321 320 320 320 320 319 319 319 320 320 321 321 320 318 317 322 325 323 322 322 322 323
320 319 323 326 328 329 329 331 329 329 330 330 333 331 332 333 332 332 331 331 332 334 334 334 334 333 325 322 320 320 320 320 319 319 319 320 320 320 320 320 320 318 324 327 327 327 326 322 320
323 319 323 323 326 327 330 329 330 329 330 331 331 330 332 332 332 332 331 331 332 334 334 335 335 335 331 326 323 320 320 320 320 319 319 319 319 320 320 320 321 321 326 327 328 328 327 324 318
327 321 321 322 325 326 328 327 330 330 331 331 331 331 331 332 332 332 331 333 334 333 333 334 334 335 335 331 329 324 321 320 320 320 319 320 320 320 321 321 321 323 327 329 329 329 327 319 318
330 325 322 321 324 324 324 326 328 329 329 330 331 331 332 332 331 330 331 330 330 330 330 333 335 335 335 335 333 330 325 322 321 321 320 320 320 321 322 322 323 325 328 331 331 330 329 328 328
331 332 326 324 323 324 324 325 326 327 327 330 331 331 331 331 331 331 331 331 330 330 330 330 331 334 335 335 335 334 331 326 323 322 321 321 321 321 322 323 325 326 330 333 333 330 329 329 328
327 330 332 330 328 326 325 325 325 326 327 329 330 330 331 330 330 329 329 330 331 330 330 329 329 330 333 335 335 335 335 335 329 323 322 322 322 321 321 324 326 325 330 333 332 331 330 329 329
319 325 327 327 328 327 327 326 326 326 327 328 329 330 330 329 329 329 329 330 331 330 330 329 329 328 329 333 335 336 336 337 334 328 323 322 323 322 321 324 329 325 331 332 331 331 331 330 329
316 317 321 324 324 324 325 327 328 328 329 329 329 328 328 328 329 329 329 329 329 330 330 329 329 328 327 330 332 334 337 338 337 335 327 324 325 324 323 328 332 328 332 334 333 332 331 331 330
315 315 317 318 320 323 325 325 326 327 327 326 326 327 328 328 328 328 328 329 328 329 330 329 329 327 327 328 331 334 336 337 338 339 338 338 337 331 330 335 331 330 334 334 333 332 331 330 331
318 316 318 319 319 320 322 324 326 326 326 326 326 327 327 327 328 328 328 328 328 328 329 329 328 327 328 329 330 331 334 337 338 339 339 340 339 337 337 335 331 330 334 333 333 332 331 331 330
315 320 318 319 320 321 321 323 323 325 325 325 326 326 327 327 328 328 329 329 328 328 329 328 327 327 328 328 328 331 336 338 340 340 340 341 340 339 336 333 332 331 329 330 329 330 332 331 329
318 319 319 319 320 321 321 322 323 323 324 324 324 325 326 326 327 327 328 329 328 328 328 328 327 328 329 329 329 335 339 342 342 342 342 341 339 336 333 332 333 331 330 331 330 329 329 329 328
316 318 320 320 320 321 322 322 322 323 324 323 324 325 325 327 327 327 327 328 329 327 328 328 328 327 329 329 333 337 342 343 343 342 341 336 335 333 332 333 332 332 333 331 329 327 326 327 328
313 314 316 316 317 320 321 321 322 322 323 323 324 324 325 326 326 327 327 329 328 328 328 328 327 327 329 330 334 341 344 344 342 340 339 336 334 332 333 332 333 331 331 330 330 327 327 326 328
313 313 315 316 316 316 315 316 317 318 319 320 322 323 325 326 327 328 328 328 327 327 327 327 327 328 331 332 337 342 344 343 343 341 339 338 332 332 333 333 333 331 329 329 328 327 327 327 327
313 314 315 314 315 315 317 316 316 317 318 319 320 323 324 324 324 325 327 328 328 327 329 330 331 332 335 337 342 344 343 343 342 341 337 334 332 332 332 332 331 332 329 326 325 325 326 327 326
311 313 315 315 315 314 315 316 317 318 319 320 320 321 322 324 325 326 326 326 327 329 330 333 334 335 339 343 345 345 343 342 338 332 332 332 333 333 332 331 331 329 325 324 324 324 324 324 324
309 313 313 313 313 314 315 315 316 316 318 320 320 322 323 323 324 325 325 326 329 331 334 335 336 343 345 345 344 342 339 335 334 333 334 333 332 332 332 330 328 327 325 324 323 324 324 324 324
307 308 311 313 314 317 315 316 317 317 317 318 319 320 323 324 324 326 329 329 332 335 336 335 338 343 344 344 341 337 337 333 332 333 333 331 331 331 329 326 326 326 326 324 324 324 325 324 325
306 306 310 313 316 316 316 316 316 317 318 319 320 321 322 322 326 331 333 334 336 337 336 337 340 342 342 340 337 333 332 333 332 332 332 331 331 329 326 325 326 325 324 325 326 326 326 326 326
310 307 308 310 313 315 316 316 317 318 318 318 318 321 328 334 335 336 337 337 337 337 336 338 341 340 337 334 333 333 333 332 332 330 329 329 326 326 325 326 325 327 327 327 326 326 326 325 325
311 311 309 308 313 314 316 318 318 318 318 318 317 330 336 337 337 338 338 338 337 337 337 337 338 336 334 333 332 333 329 329 331 331 329 327 326 325 325 325 326 326 326 325 326 326 325 325 325
309 312 309 309 310 315 316 317 317 318 317 318 318 333 336 337 337 338 338 337 337 336 335 336 335 334 333 332 331 329 331 331 330 329 329 327 328 328 326 327 328 328 327 325 325 325 324 325 324
311 310 311 311 310 313 314 316 317 318 318 322 325 334 335 336 337 337 337 337 336 334 335 334 333 332 330 330 330 330 330 330 330 329 329 327 328 327 328 329 328 327 327 324 326 327 326 324 323
Wind_Speed
2 3 5 3 2 3 3 5 4 6 6 12 16 7 7 3 5 4 21 21 20 19 20 19 20 18 14 13 12 12 10 9 7 6 5 3 3 3 2 2 1 2 3 3 3 3 3 5 7
5 6 4 1 3 1 4 4 8 3 3 16 13 8 9 2 14 15 23 22 16 15 18 20 19 17 15 14 13 13 12 11 8 6 4 2 1 2 2 3 2 2 3 4 4 5 5 6 7
7 8 0 3 3 5 4 3 3 4 9 11 10 14 3 8 14 23 15 18 18 11 16 17 18 18 18 16 16 15 15 13 11 8 6 3 0 2 4 4 4 3 4 5 6 7 7 7 7
9 4 3 1 8 7 4 10 5 4 7 6 7 5 3 12 20 18 18 17 15 10 11 14 17 19 20 19 19 18 18 16 14 12 9 6 3 3 3 5 5 5 5 6 7 7 9 11 10
9 3 1 4 6 6 10 14 20 5 5 7 19 13 6 19 18 19 18 18 13 10 11 12 18 21 22 22 22 22 21 19 17 15 13 10 7 6 4 5 6 7 7 7 7 9 13 14 15
4 3 1 5 8 8 7 14 25 7 8 12 5 5 6 19 15 9 13 13 14 11 11 16 18 23 24 24 25 25 25 22 20 19 17 14 11 10 7 7 8 9 8 8 9 11 13 15 17
5 3 4 4 5 7 3 14 6 9 12 2 13 7 13 19 8 8 7 8 12 16 17 20 21 23 28 26 26 28 27 25 23 22 20 18 15 13 11 9 10 10 8 7 8 10 11 13 15
5 3 3 4 4 8 4 19 15 11 10 10 10 5 10 21 11 10 9 12 14 18 21 25 26 28 29 31 29 30 29 29 27 26 24 22 20 17 15 12 12 11 9 7 6 7 10 12 14
14 2 5 6 6 9 7 10 25 14 13 23 3 4 14 10 9 17 16 19 21 24 22 26 28 32 31 33 32 33 32 31 30 30 28 26 25 21 17 14 14 12 9 6 6 7 9 9 10
8 7 9 8 7 6 14 3 17 27 20 17 23 4 3 13 6 15 20 18 17 14 16 23 28 33 32 36 35 35 36 37 36 35 33 32 28 24 20 17 15 12 9 9 8 7 7 6 7
7 14 12 16 17 18 19 21 19 20 15 23 17 22 24 16 19 24 21 22 21 21 18 20 21 30 33 37 39 37 38 40 40 40 37 35 30 26 23 19 17 13 10 12 13 11 9 8 9
10 20 21 23 27 24 18 27 23 24 27 26 28 31 31 29 27 28 30 28 27 22 25 24 22 21 28 35 39 40 40 37 40 42 40 37 33 29 24 21 19 15 13 13 13 13 11 11 11
21 17 21 24 31 32 31 27 25 34 37 36 38 38 34 28 24 22 26 27 28 26 25 28 29 27 23 30 36 40 41 36 35 38 40 37 35 30 24 22 20 17 17 17 15 15 13 14 14
6 6 20 24 30 31 21 27 30 34 39 40 36 34 36 37 35 38 37 33 29 32 29 30 29 26 20 23 27 31 40 38 34 31 33 32 30 29 26 21 18 19 20 17 16 17 18 17 16
21 10 15 23 17 15 28 27 28 37 34 37 37 38 37 39 42 46 46 39 37 29 29 33 29 21 20 21 24 32 37 40 36 29 26 24 21 21 21 17 18 20 20 20 19 20 21 22 21
2 4 18 20 19 14 11 32 23 26 23 30 34 38 44 47 51 49 46 40 37 38 33 22 27 21 22 24 26 28 35 39 36 30 25 22 20 19 18 18 18 18 22 23 21 21 21 22 26
6 17 21 24 11 5 13 42 13 26 31 26 29 35 39 43 46 48 45 43 42 33 24 26 25 23 22 24 27 29 32 39 34 28 23 22 20 20 16 19 14 16 22 23 22 22 22 22 23
12 22 18 17 7 15 18 33 22 31 34 36 40 44 43 43 46 50 45 41 37 29 28 32 27 18 20 26 28 31 34 33 29 25 22 21 20 21 16 16 16 17 18 19 20 22 22 23 20
10 12 15 4 10 14 20 22 20 21 28 22 29 31 39 42 45 45 43 36 35 29 20 26 22 19 20 28 31 34 36 30 27 23 24 20 19 18 13 15 16 16 17 20 19 21 19 20 18
14 15 19 6 8 10 14 25 25 24 25 29 34 36 34 43 45 47 40 30 28 24 21 26 25 18 26 29 32 37 35 27 24 22 21 15 13 15 15 16 15 16 19 21 22 19 20 18 18
16 18 14 10 11 20 7 19 18 18 18 23 28 36 36 39 38 32 29 29 29 28 24 25 25 20 28 29 31 31 33 26 22 19 17 16 15 15 17 15 16 18 20 21 18 17 17 14 13
18 12 11 16 13 15 4 20 24 19 25 18 20 29 36 38 41 39 30 30 30 26 21 22 24 24 25 25 26 27 31 27 24 18 18 16 16 17 16 16 20 19 19 14 11 10 10 11 12
19 14 11 13 11 14 14 6 30 10 18 17 18 32 39 38 32 31 31 35 25 19 20 23 21 20 21 21 21 22 22 20 18 15 16 19 19 20 18 19 19 17 11 9 7 7 8 10 11
8 10 16 17 4 8 12 13 22 15 18 11 12 22 28 37 34 26 27 25 21 21 22 20 18 20 19 19 19 20 19 18 17 18 17 16 15 15 16 18 17 11 7 5 5 5 6 7 9
7 1 4 4 6 16 13 9 21 11 7 11 15 24 37 34 28 22 18 23 27 27 23 20 22 23 21 22 22 20 21 18 14 17 16 14 13 12 13 14 10 8 5 4 3 3 3 4 5
7 9 5 7 5 8 14 10 9 16 25 36 30 34 30 31 26 22 25 29 27 25 23 23 24 27 26 24 22 21 19 13 17 15 11 10 10 10 9 7 7 6 5 5 4 3 3 4 5
5 10 7 5 14 2 7 9 8 19 24 22 19 15 13 17 23 28 29 28 27 23 23 25 26 27 26 25 22 20 16 13 14 12 9 8 8 6 6 4 4 4 3 4 3 5 5 5 5
6 4 3 4 8 6 6 6 11 8 10 10 10 10 18 23 28 29 28 26 23 21 23 27 27 27 25 22 20 17 13 11 9 7 7 6 6 7 5 4 3 3 2 4 3 4 5 4 3
3 2 3 4 4 10 3 6 5 13 12 17 8 22 31 32 33 32 28 25 23 24 28 28 27 26 22 18 15 12 12 7 6 3 5 8 8 6 6 4 1 1 3 4 4 7 6 5 6
4 6 5 2 7 4 4 16 12 16 9 19 12 25 28 34 34 31 29 27 27 28 27 26 25 23 19 17 15 13 10 6 5 5 5 7 9 8 5 1 1 4 7 5 5 7 9 10 7
Wind_Direction
266 254 191 189 76 75 250 255 248 289 14 340 351 87 120 87 153 204 155 153 162 163 171 179 186 186 187 184 179 175 171 168 164 157 151 137 109 91 71 45 359 267 263 248 230 237 260 273 274
205 180 181 194 107 171 256 233 243 357 341 9 1 61 47 31 119 146 160 165 164 169 178 183 187 189 192 192 189 186 184 185 182 180 177 153 62 22 12 8 348 270 248 250 253 254 259 268 275
192 176 173 159 188 205 211 214 199 85 60 77 356 359 80 125 124 152 150 162 177 183 187 189 192 194 197 199 198 197 197 195 195 198 200 195 248 341 343 335 326 295 260 259 262 266 277 283 274
175 173 252 223 236 263 229 268 235 232 60 133 74 327 164 159 155 156 154 173 186 202 193 205 207 205 203 204 205 205 205 203 204 206 211 214 225 280 319 317 305 289 274 263 268 270 275 278 272
168 158 211 246 256 254 259 273 275 220 175 177 158 213 146 171 160 155 164 181 191 207 219 223 225 217 210 211 211 212 211 210 211 212 217 223 234 252 284 305 300 288 275 271 280 266 255 255 259
180 245 141 240 253 265 270 297 256 171 199 243 204 202 158 161 156 154 176 192 204 230 236 235 230 229 219 219 219 218 216 216 217 218 220 225 235 248 259 286 297 288 279 276 283 275 267 264 262
162 113 226 266 269 295 307 315 324 172 180 235 141 138 160 172 192 224 216 216 219 217 228 235 238 237 225 226 228 225 222 221 223 225 225 228 233 243 252 267 287 286 277 282 289 281 279 272 266
203 113 249 238 233 270 351 331 334 344 328 94 120 154 178 191 220 227 214 218 224 220 229 227 230 232 234 227 232 232 229 227 226 230 231 232 236 241 250 259 277 276 270 281 290 307 300 270 269
198 145 235 227 205 249 39 360 300 305 329 328 226 220 185 209 244 215 211 218 224 238 237 233 234 232 236 236 230 234 234 232 230 232 233 234 237 242 249 258 271 268 276 279 310 328 315 281 274
185 193 228 230 233 284 308 268 280 301 316 300 314 235 327 318 312 200 203 212 225 238 252 237 235 233 239 246 229 234 232 232 232 233 234 236 237 241 248 255 267 263 270 274 279 304 318 309 298
210 226 214 254 259 268 273 288 253 274 278 272 270 294 309 289 297 301 287 281 268 269 265 258 249 233 238 246 237 236 233 234 234 236 237 239 238 238 243 252 256 254 259 270 275 283 288 293 305
264 240 232 248 262 267 260 270 277 267 262 277 280 284 289 294 283 289 281 277 264 259 265 260 264 247 237 239 242 241 238 238 237 239 238 238 239 238 239 248 256 259 258 265 269 266 275 268 287
251 254 247 250 251 255 264 265 264 276 281 283 286 288 291 294 291 297 297 288 265 264 266 256 264 255 245 240 240 243 242 240 239 242 240 241 241 241 241 248 250 260 260 256 265 263 261 265 274
270 288 266 260 252 257 259 265 266 267 274 279 280 284 286 291 288 290 291 283 282 277 265 260 258 253 255 248 248 255 245 242 242 242 239 241 244 245 242 245 252 253 253 254 263 272 273 267 265
262 282 279 259 252 256 256 262 253 256 267 270 274 278 282 284 285 286 286 278 274 275 283 268 247 254 259 258 261 246 249 242 243 240 233 234 237 234 228 236 244 247 251 259 265 266 271 265 263
244 249 247 250 245 248 264 265 252 255 266 277 280 281 279 280 284 283 282 272 271 274 273 252 236 251 249 256 259 260 251 243 244 241 236 229 227 222 222 238 249 256 251 257 259 262 259 262 262
209 239 238 250 227 237 205 261 245 258 259 266 271 273 273 276 280 280 281 276 268 266 260 235 245 257 249 257 265 257 248 239 241 239 233 229 229 214 219 240 257 266 258 260 267 270 266 272 266
215 222 236 255 216 227 238 263 264 265 267 269 272 271 270 272 270 277 279 272 255 258 253 248 245 254 255 257 254 243 237 235 233 228 225 230 213 204 232 243 259 272 257 263 275 280 280 276 263
274 263 252 253 200 214 242 255 264 255 256 258 264 268 264 265 266 274 278 275 247 249 259 240 241 255 256 249 235 229 225 214 212 211 209 197 217 234 234 245 271 274 274 280 280 284 281 271 253
248 267 268 307 297 230 245 257 260 262 262 255 258 259 259 267 275 277 277 257 237 246 251 240 247 255 250 238 231 221 211 202 203 206 221 231 251 222 240 263 273 277 280 284 286 278 269 264 247
244 236 260 268 305 291 304 284 272 265 264 265 268 274 273 273 275 278 275 241 242 244 250 249 242 247 237 229 220 212 209 209 207 213 229 246 229 241 253 257 267 270 283 284 277 269 261 259 245
250 251 253 245 255 261 203 280 265 270 268 267 254 259 268 275 277 276 260 234 237 242 235 235 233 223 219 218 211 205 200 205 211 221 231 225 228 239 246 262 269 274 284 278 275 268 254 241 234
251 251 245 230 238 247 243 275 269 225 250 250 253 252 261 269 278 277 269 253 241 225 227 215 213 212 205 200 199 194 196 198 197 196 197 219 226 227 244 259 275 276 275 267 269 263 249 242 230
286 232 235 258 242 244 218 220 277 246 247 243 247 257 271 278 278 277 273 259 211 205 200 204 201 185 179 178 178 181 181 183 189 201 200 210 218 230 252 267 269 258 257 265 269 265 254 244 236
232 241 232 239 202 234 178 220 239 267 238 242 251 254 258 265 275 277 249 197 189 187 185 181 182 169 165 166 171 175 183 190 189 193 198 205 224 252 263 261 243 238 259 252 243 227 209 209 203
186 182 192 197 193 243 258 234 247 236 253 260 254 263 272 278 274 201 183 176 174 172 168 170 173 162 162 169 169 175 181 177 185 194 208 236 258 255 254 211 217 238 241 238 248 275 237 217 219
310 219 206 283 275 356 233 283 298 270 272 266 262 261 239 200 176 172 170 168 164 165 165 167 168 161 164 165 171 177 180 189 204 212 220 235 246 212 182 201 214 224 254 257 278 253 264 229 226
202 293 167 201 213 236 259 257 234 263 263 270 248 175 169 164 161 162 162 161 159 163 160 160 164 162 162 166 173 174 180 184 186 215 230 217 186 152 155 167 199 231 277 285 268 236 229 218 222
308 224 221 168 197 221 288 248 234 256 268 274 233 174 163 163 160 160 158 157 156 157 155 157 163 165 165 169 168 161 153 172 191 166 173 182 161 140 140 127 141 230 351 315 239 233 219 202 243
236 248 149 195 255 265 229 256 266 290 304 293 172 163 160 158 160 158 157 155 154 154 154 158 162 164 162 160 155 154 170 184 191 166 182 190 169 168 164 188 348 342 329 310 213 222 225 227 244